02:18 MESZ | 03.05.2026 Profi-Wetter| Mobile Seite| Kontakt| Impressum| Datenschutz
Social

Wetterstation Oberpfaffenhofen

Messwerte
  Temperatur Wetter Niederschlag Luftdruck Wind
So, 01:50 Uhr 12° - - 1017 hPa 3 km/h
So, 01:20 Uhr 12° - - 1017 hPa 10 km/h S
So, 00:50 Uhr 13° - - 1017 hPa 13 km/h SO
So, 00:20 Uhr 12° - - 1017 hPa 10 km/h SO
Sa, 23:50 Uhr 10° - - 1018 hPa 5 km/h SO
Sa, 23:20 Uhr 9° - - 1018 hPa 8 km/h S
Sa, 22:50 Uhr 11° - - 1018 hPa 8 km/h S
Sa, 22:20 Uhr 11° - - 1018 hPa 5 km/h S
Sa, 21:50 Uhr 11° - - 1018 hPa 3 km/h SO
Sa, 21:20 Uhr 14° - - 1018 hPa 5 km/h SO
Sa, 20:50 Uhr 16° - - 1018 hPa 5 km/h O
Sa, 20:20 Uhr 19° - - 1018 hPa 8 km/h NO
Sa, 19:50 Uhr 20° - - 1018 hPa 11 km/h NO
Sa, 19:20 Uhr 21° - - 1018 hPa 13 km/h NO
Sa, 18:50 Uhr 22° - - 1018 hPa 14 km/h NO
Sa, 18:20 Uhr 23° - - 1018 hPa 8 km/h N
Sa, 17:50 Uhr 24° - - 1018 hPa 13 km/h NO
Sa, 17:20 Uhr 24° - - 1019 hPa 11 km/h NO
Sa, 16:50 Uhr 25° - - 1019 hPa 3 km/h
Sa, 16:20 Uhr 24° - - 1019 hPa 5 km/h NO

Alle Zeitangaben MESZ